Showing default

FEMTO-1, 68419

Orbit data source: Space-Track

FEMTO-1, 68419 is a Bulgarian payload satellite in SSO that was launched on Mon, 30 Mar 2026 UTC via an FALCON 9 launch vehicle from the Air Force Western Test Range (AFWTR). Payload-class satellites include a variety of spacecraft equipped with specific instruments for various scientific and technological missions. These include communications satellites like Starlink; space stations such as the ISS; scientific satellites like the Hubble; Earth observation satellites from companies like Planet Labs, Umbra, and HawkEye 360; GPS; miniature CubeSats for education and research; and military/defense satellites.

Loading next visibility...
Identifier
68419, 2026-067D
Orbit
SSO
Country
Flag of BGBG / BGR
Related business
Manufacturer
Endurosat
Mission
Operational Commercial Technology
Bus & Motor
CUBESAT 1U?, Unknown motor
Mass
~1 kg wet, ~1 kg dry
Launch date (UTC)
2026-03-30 (5 months ago)
Launch vehicle
FALCON 9
Launch site
Air Force Western Test Range (AFWTR)
Object type
Payload
Rocket body
Debris
Shape & HBR
Box, 0.1 m
Radar Cross Section
0.015 m², Medium (>0.1 m² and < 1m²)

Expand to show TLE details & history
Last TLE update: 14 hours ago

TLE from 14 hours ago
0 FEMTO-1
1 68419U 26067D   26255.11956810  .00002249  00000-0  10959-3 0  9994
2 68419  97.4634 212.5565 0001686  30.1524 329.9808 15.19365167 25140
Epoch: 2026-09-12T02:52Z
TLE epoch observation values (Epoch: 2026-09-12T02:52:10.683Z)
Latitude
0.00001°
Longitude
178.37884°
Altitude
509.84 km
Speed
7.61 km/s
True Right ascension
14h 10m 13s
True Declination
0° 00' 00"
Sunlit
Object was in daylight at epoch
Visualization orbit readout
Latitude
Unknown
Longitude
Unknown
Altitude
Unknown
Speed
Unknown
Apparent Right ascension
Unknown
Apparent Declination
Unknown
Sunlit
N/A
Visualization observer readout
Local Sidereal Time
09:36:25
Azimuth
Unknown
Elevation
Unknown
Doppler factor
Unknown
Orbital elements
Apogee altitude
505.888 km
Perigee altitude
503.567 km
Semi-major axis
6,882.864 km
Eccentricity
0.00017
Inclination
97.4634°
RAAN
212.5565°
Arg. of periapsis
30.1524°
True anomaly
329.97113°
Mean anomaly
329.9808°
Eccentric anomaly
329.97597°
Mean motion
3.80093 °/min
Orbital period
94.71 mins
BSTAR
0.00010959
Loading maneuver chart data...
Computing Atmospheric mass density...
Loading historical data...
Loading historical data...
Loading historical data...
Loading historical data...
Loading historical data...
Loading historical data...
Loading historical data...

Documentation

Showing up to 5 results
|